Date String (YYYY-MM-DD hh:mm:ss) UTC,Instrument flags,Ambient pressure (hPa),Sample flow (lpm),Bypass flow (lpm),Sample temperature (°C),Ambient temperature (°C),ASC tube jacket temperature (°C),LED temperature (°C),Box temperature (°C),Sample RH (%),Span deviation,Mass concentration (μg/m³),Mass concentration (μg/m³),Mass concentration (μg/m³)
DateTimeUTC,F1_M11,P_M11,Q1_M11,Q2_M11,T1_M11,T2_M11,T3_M11,T4_M11,T5_M11,U1_M11,ZSPAN_M11,X0_M11,X2_M11,X1_M11
2022-11-27 06:00:00,,0823.3,5.00,0.00,26.6,25.1,00.0,35.5,28.4,14.8,0000.0,0004.38,0001.84,0001.28
2022-11-27 06:01:00,,0823.2,5.00,0.00,26.6,25.1,00.0,35.5,28.4,14.8,0000.0,0004.22,0001.82,0001.28
2022-11-27 06:02:00,,0823.2,5.00,0.00,26.6,25.1,00.0,35.5,28.3,14.7,0000.0,0004.63,0001.84,0001.29
2022-11-27 06:03:00,,0823.2,5.01,0.00,26.6,25.1,00.0,35.5,28.4,14.8,0000.0,0005.94,0001.85,0001.29
2022-11-27 06:04:00,,0823.2,5.01,0.00,26.6,25.1,00.0,35.5,28.3,14.8,0000.0,0006.05,0001.86,0001.30
2022-11-27 06:05:00,,0823.2,5.00,0.00,26.5,25.0,00.0,35.5,28.3,14.8,0000.0,0007.15,0001.86,0001.30
2022-11-27 06:06:00,,0823.2,5.00,0.00,26.5,25.0,00.0,35.5,28.3,14.8,0000.0,0007.54,0001.84,0001.29
2022-11-27 06:07:00,,0823.2,5.00,0.00,26.5,25.0,00.0,35.5,28.3,14.8,0000.0,0007.72,0001.87,0001.30
2022-11-27 06:08:00,,0823.2,5.00,0.00,26.5,25.0,00.0,35.5,28.3,14.8,0000.0,0008.48,0001.87,0001.31
2022-11-27 06:09:00,,0823.2,5.01,0.00,26.5,25.0,00.0,35.5,28.3,14.8,0000.0,0008.47,0001.86,0001.31
2022-11-27 06:10:00,,0823.2,5.01,0.00,26.5,25.0,00.0,35.5,28.3,14.8,0000.0,0007.99,0001.86,0001.31
2022-11-27 06:11:00,,0823.2,5.00,0.00,26.5,25.0,00.0,35.5,28.3,14.7,0000.0,0007.93,0001.87,0001.31
2022-11-27 06:12:00,,0823.1,5.00,0.00,26.5,25.0,00.0,35.5,28.2,14.8,0000.0,0007.90,0001.87,0001.31
2022-11-27 06:13:00,,0823.1,4.99,0.00,26.5,25.0,00.0,35.5,28.3,14.8,0000.0,0007.84,0001.85,0001.31
2022-11-27 06:14:00,,0823.1,5.00,0.00,26.5,25.0,00.0,35.5,28.3,14.8,0000.0,0006.90,0001.85,0001.31
2022-11-27 06:15:00,,0823.1,5.00,0.00,26.5,25.0,00.0,35.5,28.3,14.8,0000.0,0006.94,0001.85,0001.31
2022-11-27 06:16:00,,0823.1,5.00,0.00,26.5,25.0,00.0,35.5,28.3,14.8,0000.0,0006.06,0001.87,0001.32
2022-11-27 06:17:00,,0823.1,5.00,0.00,26.5,25.0,00.0,35.5,28.2,14.8,0000.0,0005.26,0001.90,0001.33
2022-11-27 06:18:00,,0823.1,5.00,0.00,26.5,25.0,00.0,35.5,28.3,14.8,0000.0,0005.51,0001.89,0001.32
2022-11-27 06:19:00,,0823.1,5.00,0.00,26.5,25.0,00.0,35.5,28.3,14.8,0000.0,0005.01,0001.91,0001.33
2022-11-27 06:20:00,,0823.1,5.00,0.00,26.5,25.0,00.0,35.5,28.3,14.8,0000.0,0004.93,0001.90,0001.34
2022-11-27 06:21:00,,0823.1,5.00,0.00,26.5,25.0,00.0,35.4,28.2,14.8,0000.0,0004.81,0001.88,0001.34
2022-11-27 06:22:00,,0823.1,5.00,0.00,26.5,25.0,00.0,35.4,28.3,14.8,0000.0,0004.79,0001.88,0001.34
2022-11-27 06:23:00,,0823.1,5.01,0.00,26.5,25.0,00.0,35.4,28.3,14.8,0000.0,0004.89,0001.89,0001.35
2022-11-27 06:24:00,,0823.1,5.00,0.00,26.5,25.0,00.0,35.4,28.3,14.9,0000.0,0004.96,0001.91,0001.36
2022-11-27 06:25:00,,0823.1,4.98,0.00,26.5,25.0,00.0,35.4,28.2,14.9,0000.0,0004.86,0001.91,0001.37
2022-11-27 06:26:00,,0823.1,5.00,0.00,26.5,25.0,00.0,35.4,28.2,14.9,0000.0,0005.57,0001.92,0001.36
2022-11-27 06:27:00,,0823.1,5.00,0.00,26.5,25.0,00.0,35.4,28.2,14.9,0000.0,0005.73,0001.87,0001.36
2022-11-27 06:28:00,,0823.1,5.01,0.00,26.5,24.9,00.0,35.4,28.2,15.0,0000.0,0005.74,0001.85,0001.36
2022-11-27 06:29:00,,0823.1,5.00,0.00,26.5,24.9,00.0,35.4,28.2,15.0,0000.0,0006.56,0001.91,0001.37
2022-11-27 06:30:00,,0823.1,5.01,0.00,26.5,24.9,00.0,35.4,28.2,15.0,0000.0,0006.55,0001.90,0001.37
2022-11-27 06:31:00,,0823.1,5.00,0.00,26.4,24.9,00.0,35.4,28.2,15.0,0000.0,0006.69,0001.92,0001.37
2022-11-27 06:32:00,,0823.1,5.01,0.00,26.4,24.9,00.0,35.4,28.2,15.1,0000.0,0006.92,0001.94,0001.38
2022-11-27 06:33:00,,0823.1,5.00,0.00,26.4,24.9,00.0,35.4,28.1,15.3,0000.0,0007.36,0001.90,0001.36
2022-11-27 06:34:00,,0823.1,5.00,0.00,26.4,24.9,00.0,35.4,28.1,15.4,0000.0,0007.28,0001.90,0001.37
2022-11-27 06:35:00,,0823.1,5.00,0.00,26.4,24.9,00.0,35.4,28.2,15.5,0000.0,0007.19,0001.87,0001.37
2022-11-27 06:36:00,,0823.1,5.00,0.00,26.4,24.9,00.0,35.4,28.2,15.6,0000.0,0007.08,0001.83,0001.36
2022-11-27 06:37:00,,0823.1,5.00,0.00,26.4,24.9,00.0,35.4,28.1,15.6,0000.0,0006.14,0001.83,0001.36
2022-11-27 06:38:00,,0823.1,5.00,0.00,26.4,24.9,00.0,35.4,28.2,15.6,0000.0,0006.08,0001.88,0001.37
2022-11-27 06:39:00,,0823.0,5.00,0.00,26.4,24.9,00.0,35.4,28.1,15.7,0000.0,0006.78,0001.89,0001.36
2022-11-27 06:40:00,,0823.0,4.98,0.00,26.4,24.8,00.0,35.4,28.1,15.7,0000.0,0005.55,0001.89,0001.36
2022-11-27 06:41:00,,0823.0,5.00,0.00,26.4,24.8,00.0,35.4,28.1,15.7,0000.0,0004.71,0001.88,0001.35
2022-11-27 06:42:00,,0823.0,5.01,0.00,26.4,24.8,00.0,35.4,28.1,15.7,0000.0,0005.19,0001.87,0001.34
2022-11-27 06:43:00,,0823.1,5.01,0.00,26.4,24.8,00.0,35.4,28.2,15.7,0000.0,0005.36,0001.90,0001.34
2022-11-27 06:44:00,,0823.1,5.00,0.00,26.4,24.8,00.0,35.4,28.1,15.6,0000.0,0004.92,0001.91,0001.35
2022-11-27 06:45:00,,0822.9,5.00,0.00,26.4,24.8,00.0,35.4,28.1,15.6,0000.0,0004.98,0001.92,0001.35
2022-11-27 06:46:00,,0822.9,5.01,0.00,26.4,24.8,00.0,35.3,28.1,15.6,0000.0,0005.07,0001.96,0001.35
2022-11-27 06:47:00,,0822.9,4.99,0.00,26.3,24.8,00.0,35.3,28.1,15.5,0000.0,0005.14,0001.99,0001.35
2022-11-27 06:48:00,,0823.0,4.99,0.00,26.3,24.8,00.0,35.3,28.1,15.5,0000.0,0005.19,0001.99,0001.35
2022-11-27 06:49:00,,0822.9,5.03,0.00,26.3,24.8,00.0,35.3,28.1,15.5,0000.0,0005.55,0001.98,0001.35
2022-11-27 06:50:00,,0823.0,4.98,0.00,26.3,24.8,00.0,35.3,28.1,15.7,0000.0,0004.89,0001.98,0001.35
2022-11-27 06:51:00,,0823.0,5.02,0.00,26.3,24.8,00.0,35.3,28.1,15.5,0000.0,0004.71,0001.91,0001.35
2022-11-27 06:52:00,,0823.0,5.00,0.00,26.3,24.8,00.0,35.3,28.1,15.4,0000.0,0004.61,0001.88,0001.35
2022-11-27 06:53:00,,0823.0,5.00,0.00,26.3,24.8,00.0,35.3,28.1,15.4,0000.0,0003.99,0001.86,0001.35
2022-11-27 06:54:00,,0823.0,5.00,0.00,26.3,24.8,00.0,35.3,28.1,15.3,0000.0,0004.23,0001.85,0001.34
2022-11-27 06:55:00,,0823.0,5.00,0.00,26.3,24.8,00.0,35.3,28.1,15.3,0000.0,0004.62,0001.88,0001.35
2022-11-27 06:56:00,,0823.0,4.99,0.00,26.3,24.8,00.0,35.3,28.1,15.3,0000.0,0005.88,0001.87,0001.34
2022-11-27 06:57:00,,0823.0,5.00,0.00,26.3,24.8,00.0,35.3,28.1,15.3,0000.0,0006.49,0001.85,0001.33
2022-11-27 06:58:00,,0823.0,5.00,0.00,26.3,24.8,00.0,35.3,28.1,15.3,0000.0,0006.74,0001.86,0001.34
2022-11-27 06:59:00,,0823.0,5.00,0.00,26.3,24.8,00.0,35.3,28.1,15.2,0000.0,0007.58,0001.85,0001.35
